Flag for Germany Weather past 2 weeks in Chemnitz, Saxony, Germany

Now
64 °F

Sunny.


Feels Like: 64 °F
Forecast: 54 / 74 °F
Wind: 5 mph from Southeast

Location: Altenburg Nobitz

Current Time: Sep 18, 2014 at 11:56:28 PM

Latest Report: Sep 18, 2014 at 7:50 PM


Visibility: 10 mi

Pressure: 29.95 "Hg

Humidity: 78%

Dew point: 57 °F

Location of ChemnitzLocation

Historic Weather in Chemnitz — Graph

°F

Chemnitz temperature yesterday

Maximum temperature yesterday: 73 °F (at 1:20 PM)
Minimum temperature yesterday: 59 °F (at 8:20 AM)
Average temperature yesterday: 69 °F

Past Weeks' High & Low Weather Summary

 TemperatureHumidityPressure
High81 °F (Sep 5, 2:20 PM)100% (Sep 4, 8:20 AM)30.21 "Hg (Sep 4, 8:20 AM)
Low55 °F (Sep 4, 8:20 AM)50% (Sep 16, 2:50 PM)29.89 "Hg (Sep 6, 1:50 PM)
Average65 °F78%30.03 "Hg
* Reported Sep 3 7:20 PM — Sep 18 7:50 PM, Chemnitz, Weather by CustomWeather, © 2014

Note: Actual official high and low records may vary slightly from our data, if they occured in-between our weather recording intervals... More about our weather records

Advertising

Chemnitz weather history for previous 24 hours

 ConditionsComfort  
Time TempWeatherWind HumidityBarometerVisibility
7:50 PM
Sep 18
64 °FSunny.5 mph78%29.95 "Hg10 mi
7:20 PM66 °FPassing clouds.5 mph73%29.95 "HgN/A
6:50 PM66 °FPassing clouds.3 mph73%29.95 "HgN/A
6:20 PM66 °FPassing clouds.6 mph73%29.92 "HgN/A
5:50 PM68 °FPassing clouds.5 mph69%29.95 "HgN/A
5:20 PM70 °FPassing clouds.5 mph64%29.95 "HgN/A
4:50 PM72 °FSunny.2 mph61%29.95 "Hg10 mi
4:20 PM72 °FSunny.3 mph61%29.92 "Hg10 mi
3:50 PM72 °FPassing clouds.5 mph57%29.92 "HgN/A
3:20 PM72 °FPassing clouds.3 mph61%29.92 "HgN/A
2:50 PM72 °FPassing clouds.3 mph61%29.92 "HgN/A
2:20 PM72 °FPassing clouds.3 mph61%29.95 "HgN/A
1:50 PM72 °FSunny.2 mph57%29.95 "Hg10 mi
1:20 PM72 °FPassing clouds.3 mph57%29.95 "HgN/A
12:50 PM72 °FSunny.2 mph57%29.95 "Hg10 mi
12:20 PM72 °FSunny.2 mph57%29.95 "Hg10 mi
11:50 AM70 °FPassing clouds.2 mph60%29.95 "HgN/A
11:20 AM68 °FPassing clouds.6 mph64%29.95 "HgN/A
10:50 AM68 °FPassing clouds.6 mph64%29.95 "HgN/A
10:20 AM64 °FSunny.3 mph73%29.95 "Hg10 mi
9:50 AM63 °FSunny.5 mph77%29.95 "Hg10 mi
9:20 AM61 °FSunny.2 mph83%29.95 "Hg10 mi
8:50 AM59 °FSunny.2 mph88%29.95 "Hg10 mi
8:20 AM55 °FSunny.2 mph94%29.95 "Hg10 mi
Weather by CustomWeather, © 2014

See weather overviewHow to use our weather pages